Tracking 30922 objects as of 2-Jul-2025
HD Live streaming from Space Station
objects crossing your sky now

GLOBALSTAR M052

Track GLOBALSTAR M052 now!
10-day predictions
GLOBALSTAR M052 is classified as:


NORAD ID: 25773
Int'l Code: 1999-031D
Perigee: 2,089.7 km
Apogee: 2,094.8 km
Inclination: 52.0 °
Period: 129.1 minutes
Semi major axis: 8463 km
RCS: 2.3894 m2 (large)
Launch date: June 10, 1999
Source: Globalstar (GLOB)
Launch site: AIR FORCE EASTERN TEST RANGE (AFETR)
Your satellite tracking list
NOAA 16 DEB
Track 1 satellite(s)




NASA's NSSDC Master Catalog

Two Line Element Set (TLE):
1 25773U 99031D   25182.55922662 -.00000080  00000-0 -46954-3 0  9992
2 25773  51.9868 269.9378 0003044 192.9020 181.4226 11.15059887480114
Source of the keplerian elements: AFSPC